Weather History for KVTA - January, 2013

Change the Weather History Date:

Saturday, January 19, 2013

  Actual Average Record
Temperature  
Mean Temperature 44 °F -  
Max Temperature 53 °F 34 °F 43 °F (2015)
Min Temperature 35 °F 16 °F 28 °F (2015)
Degree Days  
Heating Degree Days 21    
Moisture  
Dew Point 23 °F    
Average Humidity 45    
Maximum Humidity 57    
Minimum Humidity 31    
Precipitation  
Precipitation 0.00 in - - ()
Sea Level Pressure  
Sea Level Pressure 30.05 in    
Wind  
Wind Speed 14 mph (SW)    
Max Wind Speed 22 mph    
Max Gust Speed 36 mph    
Visibility 10 miles    
Events      
Averages and records for this station are not official NWS values.
T = Trace of Precipitation, MM = Missing Value Source: NWS Daily Summary

Daily Weather History Graph

Daily Weather History Graph

Search for Another Location

Airport or City:

Trip Planner

Search our weather history database for the weather conditions in past years. The results will help you decide how hot, cold, wet, or windy it might be!

Date:

Astronomy

Jan. 19, 2013 Rise Set
Actual Time 7:47 AM EST 5:33 PM EST
Civil Twilight 7:18 AM EST 6:03 PM EST
Nautical Twilight 6:45 AM EST 6:36 PM EST
Astronomical Twilight 6:12 AM EST 7:08 PM EST
Moon 11:59 AM EST (1/19) 1:21 AM EST (1/19)
Length of Visible Light 10h 44m
Length of Day
9h 45m
First Quarter, 57% of the Moon is Illuminated
Jan 19
First Quarter
Jan 26
Full
Feb 3
Last Quarter
Feb 10
New
Feb 17
First Quarter

Hourly Weather History & Observations

Time (EST) Temp. Windchill Dew Point Humidity Pressure Visibility Wind Dir Wind Speed Gust Speed Precip Events Conditions
12:54 AM 35.1 °F 27.4 °F 21.0 °F 57% 30.22 in 10.0 mi SSW 10.4 mph - N/A   Clear
1:54 AM 36.0 °F 26.7 °F 21.0 °F 55% 30.21 in 10.0 mi SSW 15.0 mph 24.2 mph N/A   Clear
2:54 AM 37.0 °F 28.5 °F 21.9 °F 54% 30.20 in 10.0 mi SSW 13.8 mph - N/A   Clear
3:54 AM 36.0 °F 28.0 °F 21.9 °F 57% 30.18 in 10.0 mi SSW 11.5 mph - N/A   Clear
4:54 AM 37.0 °F 29.8 °F 21.9 °F 54% 30.17 in 10.0 mi SSW 10.4 mph - N/A   Clear
5:54 AM 36.0 °F 29.6 °F 21.9 °F 57% 30.17 in 10.0 mi SSW 8.1 mph - N/A   Clear
6:54 AM 36.0 °F 29.0 °F 21.9 °F 57% 30.17 in 10.0 mi SSW 9.2 mph - N/A   Clear
7:54 AM 36.0 °F 29.0 °F 21.0 °F 55% 30.17 in 10.0 mi SSW 9.2 mph - N/A   Clear
8:54 AM 39.9 °F 32.9 °F 21.9 °F 49% 30.18 in 10.0 mi SW 11.5 mph 18.4 mph N/A   Clear
9:54 AM 44.1 °F 35.4 °F 23.0 °F 43% 30.17 in 10.0 mi SW 21.9 mph 29.9 mph N/A   Clear
10:54 AM 46.0 °F 39.3 °F 23.0 °F 40% 30.16 in 10.0 mi SW 16.1 mph 28.8 mph N/A   Clear
11:54 AM 48.0 °F - 21.9 °F 36% 30.11 in 10.0 mi SW 20.7 mph 35.7 mph N/A   Clear
12:54 PM 50.0 °F - 21.9 °F 33% 30.06 in 10.0 mi SW 19.6 mph 33.4 mph N/A   Clear
1:54 PM 52.0 °F - 21.9 °F 31% 30.02 in 10.0 mi SW 15.0 mph 28.8 mph N/A   Clear
2:54 PM 53.1 °F - 23.0 °F 31% 29.98 in 10.0 mi SW 21.9 mph 28.8 mph N/A   Clear
3:54 PM 53.1 °F - 25.0 °F 34% 29.95 in 10.0 mi SSW 16.1 mph 27.6 mph N/A   Clear
4:54 PM 51.1 °F - 25.0 °F 36% 29.94 in 10.0 mi SSW 16.1 mph 25.3 mph N/A   Clear
5:54 PM 48.9 °F - 25.0 °F 39% 29.92 in 10.0 mi SSW 13.8 mph - N/A   Clear
6:54 PM 48.9 °F - 25.0 °F 39% 29.89 in 10.0 mi SSW 15.0 mph 21.9 mph N/A   Clear
7:54 PM 48.9 °F - 25.0 °F 39% 29.91 in 10.0 mi SW 15.0 mph 24.2 mph N/A   Clear
8:54 PM 48.0 °F - 26.1 °F 42% 29.90 in 10.0 mi SW 13.8 mph 24.2 mph N/A   Clear
9:54 PM 48.0 °F - 26.1 °F 42% 29.89 in 10.0 mi SW 21.9 mph 29.9 mph N/A   Clear
10:54 PM 46.9 °F - 26.1 °F 44% 29.88 in 10.0 mi SW 17.3 mph 26.5 mph N/A   Clear
11:54 PM 46.0 °F 38.0 °F 27.0 °F 47% 29.86 in 10.0 mi SW 21.9 mph 27.6 mph N/A   Clear